Flag for Netherlands Weather past 2 weeks in Breda, Netherlands

Now
52 °F

Passing clouds.


Feels Like: 52 °F
Forecast: 51 / 62 °F
Wind: 1 mph from Southwest

Location: Gilze-Rijen

Current Time: Aug 22, 2014 at 11:51:04 PM

Latest Report: Aug 22, 2014 at 10:55 PM


Visibility: N/A

Pressure: 29.89 "Hg

Humidity: 88%

Dew point: 48 °F

Location of BredaLocation

Historic Weather in Breda — Graph

°F

Breda temperature yesterday

Maximum temperature yesterday: 64 °F (at 2:55 PM)
Minimum temperature yesterday: 48 °F (at 12:55 AM)
Average temperature yesterday: 56 °F

Past Weeks' High & Low Weather Summary

 TemperatureHumidityPressure
High73 °F (Aug 9, 3:25 PM)100% (Aug 8, 1:25 AM)30.09 "Hg (Aug 8, 1:25 AM)
Low46 °F (Aug 20, 4:55 AM)4% (Aug 12, 12:25 PM)29.50 "Hg (Aug 10, 5:25 PM)
Average60 °F82%29.83 "Hg
* Reported Aug 7 10:25 PM — Aug 22 10:25 PM, Breda, Weather by CustomWeather, © 2014

Note: Actual official high and low records may vary slightly from our data, if they occured in-between our weather recording intervals... More about our weather records

Advertising

Breda weather history for previous 24 hours

 ConditionsComfort  
Time TempWeatherWind HumidityBarometerVisibility
10:25 PM
Aug 22
52 °FPassing clouds.3 mph88%29.89 "HgN/A
9:55 PM55 °FCool.1 mph82%29.89 "HgN/A
9:25 PM57 °FBroken clouds.6 mph82%29.89 "HgN/A
8:55 PM57 °FCool.5 mph82%29.86 "HgN/A
8:25 PM59 °FPassing clouds.5 mph82%29.86 "HgN/A
7:55 PM61 °FScattered clouds.6 mph77%29.86 "HgN/A
7:25 PM61 °FBroken clouds.8 mph77%29.83 "HgN/A
6:55 PM61 °FBroken clouds.9 mph77%29.83 "HgN/A
6:25 PM63 °FBroken clouds.10 mph73%29.83 "HgN/A
6:02 PM61 °FBroken clouds.10 mph83%29.83 "HgN/A
5:25 PM61 °FBroken clouds.9 mph83%29.83 "HgN/A
4:55 PM61 °FMostly cloudy.10 mph83%29.83 "HgN/A
4:25 PM59 °FBroken clouds.10 mph88%29.83 "HgN/A
3:55 PM59 °FScattered clouds.9 mph82%29.83 "HgN/A
3:25 PM59 °FScattered clouds.13 mph82%29.83 "HgN/A
2:55 PM61 °FBroken clouds.14 mph77%29.83 "HgN/A
2:25 PM61 °FBroken clouds.13 mph77%29.83 "HgN/A
1:55 PM61 °FOvercast.14 mph72%29.83 "HgN/A
1:25 PM61 °FLight rain. Scattered clouds.13 mph72%29.83 "HgN/A
12:55 PM61 °FMostly cloudy.14 mph68%29.83 "HgN/A
12:25 PM61 °FPartly sunny.14 mph68%29.83 "HgN/A
11:55 AM61 °FBroken clouds.10 mph68%29.83 "HgN/A
11:25 AM61 °FBroken clouds.14 mph68%29.83 "HgN/A
10:55 AM61 °FBroken clouds.13 mph68%29.83 "HgN/A
10:25 AM61 °FPassing clouds.12 mph68%29.83 "HgN/A
9:55 AM59 °FPartly sunny.10 mph72%29.83 "HgN/A
9:25 AM59 °FPartly sunny.13 mph77%29.83 "HgN/A
8:55 AM55 °FBroken clouds.9 mph82%29.86 "HgN/A
8:25 AM55 °FPartly sunny.8 mph77%29.86 "HgN/A
7:55 AM54 °FOvercast.9 mph82%29.86 "HgN/A
7:25 AM54 °FMostly cloudy.10 mph82%29.86 "HgN/A
6:55 AM54 °FPassing clouds.8 mph82%29.86 "HgN/A
6:25 AM54 °FMostly cloudy.8 mph82%29.86 "HgN/A
5:55 AM54 °FMostly cloudy.6 mph82%29.86 "HgN/A
5:25 AM54 °FMostly cloudy.8 mph82%29.89 "HgN/A
4:55 AM52 °FPartly cloudy.9 mph88%29.89 "HgN/A
4:25 AM52 °FPassing clouds.9 mph88%29.89 "HgN/A
3:55 AM52 °FOvercast.9 mph88%29.89 "HgN/A
3:25 AM52 °FOvercast.8 mph82%29.89 "HgN/A
2:55 AM52 °FPassing clouds.8 mph82%29.92 "HgN/A
2:25 AM52 °FOvercast.6 mph82%29.92 "HgN/A
1:55 AM52 °FOvercast.8 mph82%29.92 "HgN/A
1:25 AM52 °FCool.8 mph82%29.92 "HgN/A
12:55 AM50 °FCool.6 mph88%29.92 "HgN/A
12:25 AM50 °FCool.6 mph88%29.92 "HgN/A
11:55 PM
Aug 21
54 °FCool.5 mph82%29.95 "HgN/A
11:25 PM54 °FOvercast.5 mph82%29.95 "HgN/A
Weather by CustomWeather, © 2014

See weather overviewHow to use our weather pages